CAPE
0 0 0 0 0 0 0 0 0 0 10 135 168 272 194 706 823 942 933 812 552 474 312 277 176 114 71 55 79 501 959 2144 1078 674 698 720 735 861 1141 2040 1633 1841 1555 1618
0 0 0 0 0 0 0 0 0 0 7 184 296 239 398 672 700 951 933 921 599 499 357 322 238 154 66 64 169 1040 1528 2454 1494 716 1255 1061 1316 673 691 747 1819 1846 1786 1878
0 0 0 0 0 0 0 0 0 0 0 0 92 206 359 680 699 893 882 844 756 507 446 348 262 188 115 167 328 1145 1975 2405 1942 1425 982 1092 1300 1060 666 1751 1522 1894 1924 1961
0 0 0 0 0 0 0 0 0 0 1 9 0 91 262 392 744 852 852 769 779 517 494 387 292 251 164 230 340 1428 1669 2426 2003 2190 690 1703 906 535 359 965 991 1679 1860 1969
0 0 0 0 0 0 0 0 0 0 0 0 0 50 99 393 388 757 948 810 663 660 396 408 336 334 285 281 473 623 2127 2486 2333 2246 1710 1056 1409 423 387 281 2998 2150 3072 1981
0 0 0 0 0 0 0 0 0 0 0 0 0 24 68 140 265 528 698 924 776 619 524 404 423 378 381 358 498 1001 2252 2799 2724 2508 2016 2354 1605 1508 212 635 1230 1077 1420 1692
0 0 0 0 0 0 0 0 0 0 0 0 0 0 6 74 192 182 551 769 895 650 613 536 476 488 740 945 922 1361 2287 2857 2726 2458 1834 2039 2418 2256 2535 2160 646 1042 518 701
0 0 0 0 0 0 0 0 0 0 0 0 0 0 0 0 74 9 71 542 720 765 617 601 625 600 1107 1236 1386 1456 2285 2868 2901 2315 2256 2073 2413 662 194 1373 777 519 336 506
0 0 0 0 0 0 0 5 0 0 2 0 0 0 0 0 0 9 1 276 314 713 829 776 683 708 1098 1287 1619 1617 2264 2767 2768 1498 2390 2653 2397 1627 540 1169 2406 1517 1865 634
0 0 0 0 0 0 0 0 8 2 4 3 22 3 0 0 0 0 0 17 270 430 769 872 948 845 817 927 1244 1463 1796 2570 2651 2123 2406 2427 2591 2774 2210 2527 3129 2310 2347 2502
0 0 0 0 0 0 0 0 0 16 22 5 21 12 5 0 0 0 0 0 57 185 603 842 1017 1122 977 915 1028 1150 1487 2011 2153 2347 2348 2005 1994 2142 2524 2859 3057 3072 2771 3157
0 0 0 0 0 0 0 0 0 9 12 16 0 21 10 15 0 0 0 0 0 61 434 842 941 1199 1270 1145 1031 1192 1127 1158 1735 2041 2692 2326 2195 2141 2092 2457 2875 3291 3450 2907
0 0 0 0 0 0 0 0 0 2 6 48 23 2 2 6 1 0 0 0 0 12 169 724 880 1081 1263 1352 1578 1113 1165 1016 1084 1970 1926 2295 2079 2342 2095 2737 2721 3223 3449 3601
0 1 0 0 2 0 0 0 0 4 57 27 20 47 30 32 12 20 0 0 0 29 251 394 796 831 1145 1776 2251 2114 1383 1050 937 1278 1389 2189 2407 2444 2233 2556 3061 3126 3537 3717
8 2 0 0 0 0 0 0 0 0 0 10 11 10 22 27 26 55 9 0 0 0 80 235 573 1427 2261 2289 2718 2621 1750 1961 1413 1795 1665 2160 2647 2528 2676 2586 3199 3256 3579 3629
34 31 21 41 7 0 0 0 0 0 0 0 0 0 0 0 0 0 13 30 0 0 0 33 164 430 1319 2423 2816 2886 2535 2340 1938 2258 1966 2160 2715 2756 2765 2826 3277 3643 3760 3838
99 80 99 43 41 14 6 0 0 0 0 0 0 0 0 0 0 0 11 38 16 21 0 22 0 190 372 906 2405 2488 2939 2418 2639 2836 2491 2717 3146 3153 3179 3211 3544 3763 3865 4080
190 251 293 150 71 48 17 0 0 0 0 0 0 0 0 0 0 0 79 804 745 516 154 223 240 191 110 429 810 1800 2148 3205 3170 2949 3471 3000 3496 3449 3616 3706 3741 3914 3955 4008
187 402 344 250 140 43 21 8 0 11 0 0 0 0 0 0 0 0 0 970 799 830 827 812 808 720 778 332 408 1834 1910 3356 3179 3554 3548 3480 3582 3743 3927 3968 3992 4080 4111 4138
162 357 323 287 134 114 22 18 65 1 1 0 0 0 0 0 0 0 774 1072 885 751 746 898 1020 1057 1130 1254 868 668 1645 2391 3322 3632 3526 3751 3725 3956 4004 4079 4207 4353 4268 4250
105 347 194 372 207 154 47 70 7 7 3 4 18 7 0 0 0 46 166 296 211 533 807 1022 1402 1454 1684 1791 1459 1633 1782 2409 3104 3374 3695 4015 3965 4135 4187 4331 4378 4417 4381 3702
73 108 142 114 109 119 47 47 31 33 0 0 9 49 101 264 501 64 0 1 0 26 115 602 2126 2244 2229 2223 2653 2735 2327 2741 3370 3622 3712 4061 4235 3789 3599 4467 4458 4488 4489 4468
103 115 91 106 59 79 43 17 8 2 16 10 62 376 620 309 103 1 0 0 0 0 1 71 1763 2547 1508 2331 2797 3160 2416 3887 3725 3907 3935 4135 4282 4269 4213 4405 4555 4065 4443 3358
18 8 17 10 9 27 21 5 24 29 25 68 13 0 6 1 1 0 1 0 1 1 0 0 512 2722 2708 2671 2161 2648 4450 4035 4188 4149 4092 4254 4222 4268 4206 3681 3740 3253 3162 3215
18 15 21 14 8 9 14 27 28 50 54 47 7 7 7 7 6 8 10 2 1 3 1 2 2 96 523 1268 1968 2388 3221 3887 3525 4077 4137 3934 3618 3404 3952 3968 2808 3337 1051 1572
27 28 17 28 12 25 10 24 45 48 26 16 17 6 0 0 16 29 44 11 6 0 1 1 1 4 4 5 2 4 397 3651 3524 3696 3336 3481 3036 3404 3548 1957 1136 0 143 1
CIN
-0 -0 -0 -0 -0 -0 -0 -0 -0 -0 -0 -2 -10 -32 -6 -0 -0 -0 -0 -5 -15 -7 -5 -3 -4 -1 -8 -7 -4 -0 -0 -0 -0 -0 -0 -0 -0 -0 -0 -2 -0 -0 -0 -0
-0 -0 -0 -0 -0 -0 -0 -0 -0 -0 -0 -0 -3 -8 -5 -0 -0 -0 -1 -2 -8 -1 -3 -4 -8 -6 -8 -20 -10 -0 -0 -0 -0 -1 -0 -0 -0 -0 -0 -0 -0 -0 -0 -0
-0 -0 -0 -0 -0 -0 -0 -0 -0 -0 -0 -0 -4 -4 -1 -0 -0 -0 -0 -1 -4 -15 -17 -19 -19 -21 -20 -18 -5 -0 -0 -0 -0 -0 -0 -0 -0 -0 -0 -0 -0 -0 -0 -0
-0 -0 -0 -0 -0 -0 -0 -0 -0 -0 -0 -0 -0 -6 -18 -3 -0 -0 -0 -0 -10 -21 -17 -22 -23 -28 -43 -16 -7 -0 -0 -0 -0 -0 -1 -0 -0 -0 -0 -0 -0 -0 -0 -0
-0 -0 -0 -0 -0 -0 -0 -0 -0 -0 -0 -0 -0 -0 -3 -0 -26 -0 -0 -0 -2 -29 -30 -47 -67 -60 -33 -23 -11 -1 -0 -0 -0 -0 -1 -0 -1 -0 -0 -0 -1 -0 -0 -0
-0 -0 -0 -0 -0 -0 -0 -0 -0 -0 -0 -0 -0 -0 -1 -1 -2 -3 -0 -0 -0 -19 -37 -46 -55 -32 -23 -17 -12 -0 -0 -0 -0 -0 -4 -0 -0 -1 -31 -0 -0 -0 -0 -0
-0 -0 -0 -0 -0 -0 -0 -0 -0 -0 -0 -0 -0 -0 -0 -0 -24 -5 -0 -0 -0 -16 -26 -42 -57 -57 -38 -10 -11 -1 -0 -0 -0 -0 -2 -0 -0 -3 -0 -0 -0 -1 -0 -0
-0 -0 -0 -0 -0 -0 -0 -0 -0 -0 -0 -0 -0 -0 -0 -0 -0 -250 -121 -6 -0 -2 -19 -40 -71 -85 -52 -30 -17 -9 -0 -0 -0 -0 -0 -0 -0 -15 -58 -0 -0 -0 -0 -0
-0 -0 -0 -0 -0 -0 -0 -0 -0 -0 -0 -0 -0 -0 -0 -0 -0 -0 -0 -3 -2 -0 -0 -28 -60 -68 -47 -38 -30 -33 -2 -0 -0 -9 -0 -0 -0 -4 -8 -5 -0 -0 -0 -0
-0 -0 -0 -0 -0 -0 -0 -0 -0 -0 -0 -0 -0 -0 -0 -0 -0 -0 -0 -19 -1 -0 -0 -0 -15 -51 -81 -89 -62 -28 -10 -5 -3 -0 -0 -0 -0 -0 -1 -0 -0 -0 -0 -0
-0 -0 -0 -0 -0 -0 -0 -0 -0 -0 -0 -0 -0 -0 -0 -0 -0 -0 -0 -0 -12 -1 -0 -1 -1 -22 -70 -74 -58 -75 -45 -12 -8 -0 -0 -2 -3 -0 -0 -0 -0 -0 -0 -0
-0 -0 -0 -0 -0 -0 -0 -0 -0 -0 -0 -0 -0 -0 -1 -1 -0 -0 -0 -0 -0 -0 -1 -0 -0 -13 -19 -55 -69 -73 -94 -90 -66 -26 -0 -0 -4 -3 -0 -0 -0 -0 -0 -0
-0 -0 -0 -0 -0 -0 -0 -0 -0 -0 -0 -0 -0 -0 -7 -6 -5 -0 -0 -0 -0 -9 -0 -0 -0 -0 -11 -38 -38 -68 -65 -106 -104 -35 -26 -0 -0 -1 -2 -0 -0 -0 -0 -0
-0 -0 -0 -0 -3 -0 -0 -0 -0 -0 -0 -0 -0 -1 -1 -1 -0 -1 -0 -0 -0 -1 -1 -0 -0 -0 -10 -6 -22 -30 -55 -76 -87 -78 -57 -17 -8 -1 -6 -0 -0 -0 -0 -0
-0 -0 -0 -0 -0 -0 -0 -0 -0 -0 -0 -0 -1 -11 -15 -3 -1 -0 -0 -0 -0 -0 -0 -0 -0 -0 -0 -0 -2 -11 -28 -20 -47 -48 -57 -37 -25 -25 -6 -2 -0 -0 -0 -4
-0 -0 -0 -0 -0 -0 -0 -0 -0 -0 -0 -0 -0 -0 -0 -0 -0 -0 -22 -0 -0 -0 -0 -8 -1 -0 -0 -0 -1 -5 -12 -17 -32 -32 -77 -63 -27 -14 -13 -12 -0 -0 -0 -0
-0 -0 -0 -0 -0 -0 -0 -0 -0 -0 -0 -0 -0 -0 -0 -0 -0 -0 -6 -0 -1 -0 -3 -9 -0 -20 -16 -20 -20 -15 -37 -36 -13 -16 -29 -10 -12 -15 -8 -9 -1 -0 -0 -0
-0 -0 -0 -0 -0 -0 -0 -0 -0 -0 -0 -0 -0 -0 -0 -0 -0 -0 -7 -7 -8 -5 -7 -1 -10 -35 -72 -35 -40 -50 -19 -5 -4 -20 -3 -8 -0 -14 -4 -0 -0 -4 -6 -6
-0 -0 -0 -0 -0 -0 -0 -0 -0 -61 -0 -0 -0 -0 -0 -0 -0 -0 -0 -7 -33 -53 -52 -57 -57 -51 -78 -93 -60 -24 -52 -15 -16 -19 -14 -19 -7 -7 -2 -0 -0 -1 -4 -8
-0 -0 -0 -0 -0 -0 -0 -7 -77 -61 -0 -0 -0 -0 -0 -0 -0 -0 -4 -3 -43 -75 -70 -66 -91 -97 -93 -137 -86 -86 -97 -70 -60 -57 -82 -33 -12 -4 -13 -9 -1 -0 -5 -9
-0 -0 -0 -0 -0 -0 -8 -28 -78 -2 -0 -1 -36 -1 -0 -0 -0 -7 -96 -121 -185 -128 -103 -110 -119 -140 -132 -123 -115 -84 -73 -100 -138 -103 -37 -18 -14 -8 -11 -3 -0 -1 -6 -10
-0 -0 -0 -0 -0 -0 -40 -34 -17 -3 -1 -0 -0 -4 -0 -11 -28 -57 -0 -35 -0 -112 -351 -240 -54 -51 -83 -113 -71 -89 -88 -134 -51 -50 -41 -17 -6 -25 -23 -0 -0 -0 -0 -0
-0 -0 -0 -0 -1 -9 -0 -0 -0 -0 -0 -0 -5 -0 -0 -6 -152 -0 -0 -0 -0 -0 -5 -434 -95 -12 -62 -74 -91 -83 -167 -12 -45 -36 -42 -25 -9 -17 -1 -1 -0 -15 -0 -15
-0 -0 -0 -0 -2 -0 -0 -0 -0 -0 -0 -0 -0 -0 -54 -0 -0 -0 -0 -0 -0 -0 -0 -0 -269 -0 -30 -32 -84 -85 -0 -9 -19 -22 -19 -14 -21 -21 -1 -13 -6 -15 -18 -19
-0 -0 -0 -0 -0 -0 -0 -0 -0 -0 -0 -0 -0 -0 -0 -0 -0 -0 -0 -0 -0 -0 -0 -0 -0 -188 -283 -180 -110 -25 -4 -9 -30 -1 -2 -33 -47 -48 -6 -2 -37 -4 -228 -227
-0 -0 -0 -0 -0 -0 -0 -0 -0 -0 -0 -0 -1 -0 -0 -0 -0 -0 -0 -0 -0 -0 -0 -1 -0 -0 -0 -0 -0 -223 -653 -11 -3 -13 -38 -42 -52 -38 -6 -159 -307 -0 -165 -0
Wind_Speed
20 17 19 21 20 22 17 16 20 19 14 16 17 12 30 18 19 20 20 21 22 24 24 23 22 21 20 19 18 17 15 13 11 10 10 8 9 7 6 4 7 6 4 5
15 21 20 18 17 19 19 15 15 16 14 9 15 15 11 18 17 20 20 21 22 23 25 24 23 23 22 21 19 17 15 14 11 9 8 7 7 8 7 6 8 7 7 6
22 12 21 21 19 17 18 19 17 13 11 16 11 20 15 15 20 20 19 20 22 24 26 25 25 24 22 22 20 18 15 15 14 12 8 6 7 5 7 6 7 8 8 8
21 21 11 22 21 17 19 18 18 15 13 12 20 13 22 18 18 23 20 19 22 24 24 25 26 25 25 22 21 18 17 15 15 13 12 12 9 9 7 7 8 10 9 9
16 18 21 18 22 17 17 16 17 17 17 16 21 18 11 29 25 23 23 22 22 23 26 28 28 27 25 23 22 20 18 16 16 15 12 12 12 10 9 8 10 4 8 9
20 9 13 19 15 17 18 17 14 14 14 18 24 18 18 20 17 26 24 24 23 24 25 26 26 25 23 23 23 21 20 18 17 17 16 13 15 11 10 9 9 9 9 9
18 20 13 15 17 22 16 15 13 15 16 18 23 24 18 18 21 24 28 26 25 24 24 24 27 26 25 25 24 21 22 20 20 19 18 15 13 13 9 9 9 9 10 10
13 17 21 17 21 17 26 23 13 21 15 21 24 26 24 25 17 17 41 21 26 26 24 25 26 26 25 25 24 23 23 22 20 20 19 17 15 12 12 10 9 10 9 8
10 18 8 4 7 18 16 25 26 26 22 21 18 25 24 25 27 18 19 19 19 28 25 25 26 26 25 24 25 25 23 23 22 23 17 17 16 16 13 13 12 9 9 7
6 11 10 10 5 15 17 17 19 18 25 27 18 22 19 24 21 25 21 14 15 22 25 23 24 26 25 26 25 24 22 23 23 22 19 17 18 17 14 13 12 13 9 9
13 9 15 9 12 20 17 20 20 20 19 20 19 16 12 21 23 20 25 23 17 17 19 19 22 24 25 24 24 26 24 22 22 22 21 20 18 18 17 13 13 11 10 9
5 9 15 17 13 14 24 13 22 18 22 17 21 16 14 10 20 20 20 21 25 22 18 20 21 23 24 25 24 24 25 26 24 22 20 20 19 19 18 17 15 13 13 12
4 10 13 17 16 16 17 17 17 17 21 24 19 19 20 4 6 5 13 20 20 22 23 20 21 22 23 25 23 24 24 26 25 22 23 21 20 20 19 19 17 16 14 14
2 14 14 15 6 13 10 21 20 18 16 19 21 19 25 11 4 5 9 12 21 17 19 21 20 21 21 21 21 21 24 24 24 24 24 22 22 21 20 18 18 17 16 15
11 16 17 19 19 13 15 13 12 17 18 23 21 22 24 15 12 10 8 9 14 16 18 17 20 17 18 19 19 20 21 21 23 22 22 22 21 21 19 19 18 17 17 16
14 16 16 22 15 17 19 18 18 19 20 22 24 27 23 22 22 24 25 13 8 9 8 9 15 15 18 19 18 20 21 20 22 21 22 20 20 19 20 19 18 18 17 17
16 14 14 20 20 19 21 21 21 22 22 21 24 24 23 25 25 27 25 18 19 13 11 8 11 15 15 17 18 19 22 20 20 19 20 19 20 20 20 20 19 19 18 16
17 15 13 16 19 23 15 18 20 23 23 22 24 25 27 28 28 27 23 8 12 10 2 7 11 12 12 16 20 19 20 20 19 20 19 20 19 20 19 19 20 19 17 18
22 17 9 13 15 19 22 15 20 8 16 17 22 26 28 30 31 28 32 4 7 8 9 11 13 14 13 13 14 17 18 20 20 20 20 21 20 20 19 20 20 18 17 16
23 17 10 12 18 23 21 9 12 8 20 20 27 30 33 29 21 20 9 1 7 9 11 13 14 14 15 16 15 16 22 20 22 21 23 19 19 19 21 20 19 17 16 17
7 15 16 17 18 16 19 9 7 10 14 24 36 34 33 25 22 14 3 4 6 9 10 13 15 16 17 17 18 17 19 22 22 19 17 18 19 19 19 17 16 16 17 16
5 7 10 12 13 19 11 4 6 12 19 21 40 18 19 19 4 4 3 5 6 9 11 12 15 16 17 18 16 18 18 19 15 17 18 18 18 16 15 17 15 16 15 14
4 5 5 5 2 8 2 9 14 14 18 27 24 12 12 6 4 5 8 8 9 11 12 13 17 15 11 13 15 16 17 15 17 17 18 17 17 16 14 16 15 13 14 14
2 3 3 3 5 13 16 14 14 15 19 11 15 9 3 10 5 11 10 9 11 13 14 14 15 11 13 10 11 14 13 14 15 16 17 15 16 15 14 14 14 13 14 14
3 5 6 6 8 16 8 8 12 15 8 8 4 4 6 7 13 10 9 10 12 11 12 12 11 12 16 16 17 6 11 13 15 15 15 15 15 15 14 10 10 13 4 4
3 4 4 4 11 11 10 10 14 8 11 7 3 7 8 9 8 10 7 10 8 12 10 12 13 14 14 13 14 16 17 6 14 15 13 13 15 14 12 11 7 13 14 13
Wind_Direction
196 213 213 215 230 243 284 236 230 202 214 202 208 197 215 168 171 157 170 174 180 183 183 177 188 183 180 179 178 186 187 162 175 176 189 192 172 193 190 194 117 159 166 173
189 220 223 227 233 234 255 258 257 233 195 202 254 227 183 174 174 166 176 174 179 181 181 182 190 186 187 183 181 185 186 169 189 192 201 198 209 179 201 201 156 199 184 159
227 212 220 231 230 233 236 243 247 238 172 231 194 261 241 185 171 166 179 175 179 184 182 187 190 189 191 184 187 183 188 178 187 198 194 207 207 210 204 183 171 187 185 179
227 243 214 219 229 225 235 222 258 248 246 225 217 220 237 199 192 172 182 180 179 183 188 186 189 195 192 188 188 183 188 186 186 207 184 191 203 204 188 215 195 155 191 187
222 230 233 237 227 223 243 248 222 240 250 256 256 224 217 206 184 185 182 185 183 184 187 185 192 194 193 192 187 189 185 191 191 192 215 183 217 203 189 213 135 188 166 199
264 290 242 243 224 220 237 244 248 250 240 233 235 240 231 197 216 202 183 184 188 185 187 189 190 190 196 193 191 188 184 191 196 188 208 199 197 229 211 209 171 186 179 189
223 242 205 250 252 215 214 213 220 223 220 237 221 229 238 216 194 243 187 188 183 182 188 189 186 191 193 193 193 188 183 191 191 191 193 209 204 215 243 189 221 201 208 188
242 208 215 206 236 229 212 229 225 218 219 231 226 220 221 247 242 147 266 182 185 182 184 187 192 193 192 194 190 191 184 189 193 196 194 197 197 204 221 209 215 222 221 209
263 246 85 4 228 254 244 218 240 262 258 245 220 218 236 213 237 250 229 174 214 180 183 187 190 193 192 196 191 192 187 187 192 196 194 191 199 213 201 225 209 228 223 224
319 273 179 183 230 258 269 275 222 239 249 256 249 235 207 210 225 225 229 233 206 200 181 186 189 193 194 197 195 193 195 191 192 196 194 194 193 198 218 201 208 213 224 228
297 252 253 197 211 240 203 241 255 278 235 245 247 243 239 196 203 229 220 220 229 233 174 195 187 192 195 195 197 196 196 193 196 199 196 198 195 198 204 211 202 219 219 220
219 284 240 228 232 240 259 275 226 237 234 246 247 243 257 229 192 205 237 217 221 217 207 188 194 194 190 195 196 196 197 198 196 200 198 198 194 197 198 206 209 201 211 216
245 234 245 246 251 257 256 242 247 268 254 247 232 228 253 184 181 285 241 226 227 231 213 191 200 190 193 192 196 198 197 200 198 198 197 196 199 197 201 196 205 204 206 209
298 275 262 262 71 340 275 222 246 253 249 255 252 256 230 173 196 261 255 239 229 227 218 194 198 191 194 193 191 196 198 202 200 194 201 198 198 199 199 199 197 204 202 205
239 251 257 270 287 281 276 276 256 255 262 262 253 249 262 280 314 267 250 229 249 241 219 216 202 190 183 192 190 190 201 199 199 193 199 197 197 199 197 199 197 201 203 204
233 255 280 285 265 265 258 247 249 256 259 262 275 278 287 306 305 299 296 267 195 258 282 262 197 221 194 188 193 189 196 201 202 194 198 194 191 195 197 196 196 197 203 205
256 255 254 257 256 247 246 250 250 252 250 250 250 258 273 276 275 279 280 244 261 242 220 243 247 220 219 200 192 201 194 202 198 203 193 196 188 195 197 195 193 197 200 202
243 245 244 261 267 257 253 260 260 260 256 254 256 260 260 264 269 271 291 336 320 330 295 277 268 254 239 219 200 201 195 196 208 201 193 196 192 195 195 197 198 197 196 202
232 226 244 238 250 259 261 262 268 337 283 300 286 279 249 253 262 270 271 203 289 294 281 265 264 266 269 250 227 187 204 188 206 199 203 194 197 192 195 198 200 198 198 199
238 228 209 237 236 250 259 265 34 328 266 255 259 250 252 241 245 251 315 123 260 271 271 271 268 260 248 242 244 208 193 198 198 206 200 197 197 196 197 197 197 198 200 202
248 207 224 230 240 256 260 349 341 258 280 316 304 240 229 232 244 261 351 291 292 287 289 283 269 256 246 242 225 232 200 202 202 200 194 194 199 199 198 197 196 198 202 205
283 209 214 237 247 248 24 308 246 324 316 314 298 207 220 234 90 42 48 342 1 337 330 322 295 259 240 227 225 215 227 200 185 187 194 194 196 201 195 197 194 198 202 208
281 325 316 281 291 2 4 302 275 285 281 283 281 265 239 145 140 85 57 23 15 1 347 350 315 292 237 210 220 208 225 176 176 183 188 192 189 192 199 192 195 192 198 210
262 281 270 335 8 311 300 295 263 287 286 271 274 332 179 114 126 74 52 42 21 14 6 356 347 9 15 330 195 209 185 169 171 178 186 183 185 187 203 186 196 203 199 204
304 303 284 258 284 301 263 259 278 285 300 285 345 15 46 89 69 63 56 45 24 9 14 0 3 24 24 21 16 354 169 172 177 183 186 179 186 185 191 190 204 199 69 216
7 331 312 297 313 301 295 352 315 294 327 294 328 43 10 29 34 70 65 52 12 16 15 2 15 29 20 19 17 8 351 216 189 188 183 180 187 170 185 158 126 25 113 117